User: anonymous   Login
Location: Julian California
(33.0790°N, 116.6010°W)
Time: 05:51:27
(UTC-07:00)
Language:

ARGOS - Orbit

View from above orbital plane
View from above orbital plane
View from above satellite
View from above satellite

Ground track
Ground track

The orbit data is extracted from the following two-line orbital elements,

1 25634U 99008A   19083.72446864 -.00000025  00000-0  80657-5 0  9997
2 25634  98.5255 135.9080 0011010 138.8076 221.3934 14.19349101 40032
Epoch (UTC): 24 March 2019 17:23:14
Eccentricity: 0.0011010
inclination: 98.5255°
perigee height: 819 km
apogee height: 835 km
right ascension of ascending node: 135.9080°
argument of perigee: 138.8076°
revolutions per day: 14.19349101
mean anomaly at epoch: 221.3934°
orbit number at epoch: 4003

The dashed part of the orbit path shows where the satellite is in the earth's shadow,  

DLR